Wetbulb
60.87 57.33 56.12 52.83 43.78 41.57 37.29 40.74 42.52 44.58 43.74 46.11 47.58 46.32 44.51 45.29 45.97 41.69 55.45 60.31 64.55 67.77 69.48 71.32 72.71 73.52 73.64 73.66 73.48 73.22 73.34 72.82 72.27 71.94 71.61 71.73 71.84 71.83 71.48 71.11 72.25 72.36 71.77 70.91 70.17 70.01 69.10 67.03 66.12
55.83 58.24 53.22 48.00 40.10 35.24 37.14 40.83 43.08 44.62 46.55 46.49 47.13 46.77 44.89 44.79 50.30 54.35 57.14 61.46 62.74 67.75 69.54 70.42 71.76 73.21 73.50 73.67 73.26 73.09 73.21 72.97 72.15 72.01 72.29 72.47 72.28 71.92 71.95 71.82 71.85 71.68 71.31 70.34 69.66 68.69 66.93 65.65 63.81
57.70 56.58 47.34 42.42 38.20 35.47 36.87 40.42 41.47 45.65 46.91 46.56 45.14 47.31 45.29 46.64 50.29 55.32 58.76 62.04 62.89 67.60 68.88 70.33 71.49 73.09 73.31 73.48 73.06 72.88 72.85 72.98 72.80 72.62 72.36 72.37 71.81 71.29 70.71 70.98 71.01 70.41 70.01 68.91 68.16 66.89 65.49 63.52 61.63
53.64 50.93 46.98 39.95 37.23 40.22 39.53 40.37 43.23 44.78 45.98 47.38 46.12 44.29 46.75 48.87 51.95 56.26 60.43 62.38 61.16 65.73 68.12 69.96 71.85 73.11 73.30 73.14 72.95 72.75 72.81 72.70 72.79 72.72 71.84 72.05 71.21 70.08 68.93 68.29 70.29 69.65 68.69 67.48 66.51 65.47 63.82 61.76 59.65
50.87 46.15 39.69 38.12 39.19 41.35 41.91 44.86 44.85 44.21 43.90 45.48 46.19 44.57 45.20 50.58 54.44 58.07 59.74 61.78 60.29 61.35 67.04 69.70 71.29 72.45 72.94 73.04 72.97 72.82 72.75 72.70 72.88 73.10 72.64 72.24 71.47 70.20 66.90 66.28 67.56 68.93 67.73 66.24 65.37 64.04 61.99 60.15 58.33
46.28 43.63 37.12 35.38 37.74 42.15 43.15 44.58 43.95 44.03 44.25 44.17 43.14 42.57 43.98 49.77 50.24 53.09 59.35 59.88 61.45 61.15 67.62 69.42 68.85 70.05 71.32 72.22 72.46 72.51 72.52 72.33 72.36 72.75 72.76 72.43 71.49 69.22 67.01 65.81 66.57 66.83 66.74 65.22 64.51 62.35 60.73 58.93 57.01
45.56 41.07 36.50 37.98 38.57 40.46 44.23 45.07 42.05 41.81 42.79 43.33 45.44 41.09 45.60 47.33 51.74 53.79 56.22 58.16 60.12 61.15 65.85 68.07 69.14 68.94 68.16 69.38 70.17 71.08 71.72 71.72 71.76 72.18 71.85 71.00 70.14 68.76 67.90 66.32 66.40 65.83 65.66 64.52 63.52 61.04 59.54 57.91 55.92
45.92 42.17 38.84 38.33 38.43 39.47 43.98 44.13 45.02 43.26 43.69 46.06 45.71 41.28 43.97 49.33 52.78 53.73 54.90 57.06 58.02 60.80 62.15 65.26 66.31 67.63 67.80 68.28 66.97 67.95 69.25 69.87 70.20 70.13 68.97 67.32 66.45 66.60 65.62 64.51 65.63 65.50 64.98 63.84 62.20 60.18 59.00 57.37 54.54
47.12 38.70 36.05 38.56 39.77 40.17 44.53 43.01 45.00 45.78 43.92 44.53 47.60 45.55 46.84 50.03 51.78 52.39 51.87 53.59 55.20 58.73 62.03 62.30 64.94 65.68 66.91 66.80 66.20 65.18 66.46 67.36 67.44 67.06 64.95 63.27 63.06 62.71 62.36 61.99 64.23 65.33 64.24 63.09 61.28 59.80 58.28 55.86 52.31
43.21 38.01 40.36 42.56 40.90 41.29 44.58 42.87 42.28 42.67 43.25 43.35 43.51 45.75 46.96 50.03 49.14 49.53 49.32 50.81 52.39 54.72 58.09 62.08 62.51 64.43 65.67 67.92 66.64 65.62 67.33 66.89 66.33 65.98 63.82 63.75 61.33 60.82 60.86 59.42 61.76 63.32 62.92 62.57 60.85 59.31 56.98 51.68 43.31
44.44 39.76 43.75 45.42 46.12 45.39 44.52 44.65 44.37 41.79 40.57 44.75 44.26 45.43 47.90 45.82 46.02 47.90 47.84 49.00 50.05 53.62 56.51 60.56 62.27 62.77 64.28 65.68 64.48 66.10 67.40 66.06 66.05 65.39 63.57 63.01 62.22 60.16 58.30 56.98 57.71 57.37 57.79 56.23 56.85 54.01 49.06 46.73 43.90
41.29 45.92 45.49 46.81 47.13 45.38 43.57 45.21 44.72 43.76 45.45 47.35 46.70 47.15 45.43 46.62 46.63 46.68 47.20 47.64 47.00 49.10 54.93 58.10 61.42 62.01 62.35 63.89 62.77 64.60 65.97 64.27 63.19 65.21 63.55 63.10 62.33 60.05 56.75 54.73 54.54 54.18 52.89 51.78 49.74 48.16 45.38 42.71 42.37
41.99 44.11 46.99 47.10 46.17 44.93 45.59 44.06 43.70 44.80 47.53 47.55 47.49 46.94 45.30 45.82 45.17 45.59 46.35 47.01 47.02 48.00 49.04 55.11 59.11 61.39 62.29 61.80 61.51 61.24 63.45 63.52 63.18 61.89 64.05 63.60 62.31 59.11 55.84 53.58 53.94 52.53 51.29 50.12 47.99 45.92 42.34 41.66 41.43
43.37 43.45 43.81 44.94 45.26 44.27 43.77 42.30 42.76 45.22 45.19 44.95 44.97 44.28 44.17 44.31 44.17 44.16 44.73 44.38 45.01 46.30 46.83 48.67 56.51 59.98 60.54 61.27 60.61 60.44 60.56 60.82 61.04 60.94 61.22 62.25 62.67 58.71 55.87 53.56 53.64 52.55 51.48 49.26 46.89 43.20 41.30 40.44 40.20
43.83 40.34 41.93 43.18 43.29 43.11 43.78 39.96 40.75 45.18 44.58 44.13 41.98 44.12 43.23 43.22 43.14 42.02 42.89 42.90 43.32 44.43 45.30 46.49 48.50 56.65 58.42 59.28 59.88 59.63 59.85 59.92 59.77 60.25 60.11 59.58 59.41 57.70 55.58 52.81 52.63 53.18 50.77 47.97 43.86 41.78 40.85 39.39 39.88
40.05 37.57 34.69 42.36 42.73 42.32 40.97 36.34 43.03 45.14 43.24 44.57 42.43 41.81 41.02 42.11 42.05 42.15 42.41 42.12 42.19 42.69 43.80 45.39 47.75 49.67 56.76 57.20 58.19 59.35 59.08 58.72 58.74 59.45 60.46 58.98 58.45 57.08 54.31 52.16 51.02 50.98 48.84 45.50 42.13 40.59 39.35 38.33 37.86
35.73 32.16 34.80 38.95 43.20 41.65 38.94 36.22 42.79 44.50 43.75 41.96 41.40 40.32 40.82 40.84 41.03 41.36 41.63 41.29 41.18 41.17 42.15 43.53 45.44 47.12 52.21 55.71 56.18 56.73 57.58 57.54 57.39 58.05 59.18 58.95 57.22 55.29 53.60 51.87 50.11 49.08 45.82 42.42 41.70 38.45 38.31 36.27 36.10
33.36 32.59 36.10 35.05 40.68 39.70 37.50 37.58 40.63 43.42 44.12 41.26 38.76 38.41 39.59 39.34 39.35 40.83 40.74 41.22 40.75 40.25 40.99 42.04 43.96 45.70 49.30 51.87 53.02 53.67 54.73 56.44 57.28 57.33 58.18 57.67 57.16 54.64 52.26 50.42 48.97 46.64 43.06 40.24 39.35 38.41 37.09 36.39 36.04
35.86 35.12 34.23 37.43 42.09 37.99 39.25 37.79 40.71 42.73 42.58 40.56 38.54 38.98 39.04 38.88 40.06 40.13 40.14 39.63 39.71 39.76 39.98 40.32 41.24 42.69 45.08 47.66 48.94 50.10 50.68 51.62 54.04 55.69 55.84 55.97 55.86 55.06 50.86 48.85 47.56 44.17 42.94 40.55 39.06 37.37 36.81 35.83 34.93
37.52 35.14 34.26 37.98 40.94 37.96 37.92 37.69 40.04 42.46 42.28 40.37 38.57 37.98 38.21 38.31 38.36 38.93 38.40 38.23 38.18 38.33 38.75 39.43 39.82 40.37 41.80 44.22 45.62 46.37 45.07 45.59 49.26 50.35 52.59 53.66 53.47 53.04 51.11 47.82 45.82 42.92 40.04 38.83 38.29 37.75 35.76 35.96 35.58
36.43 34.96 34.46 35.55 38.03 37.45 34.88 33.66 38.16 41.11 39.45 40.00 39.37 39.31 38.80 37.52 36.70 36.53 36.96 36.08 36.08 36.77 36.22 38.58 39.19 39.61 39.64 40.48 41.81 42.65 43.01 42.89 43.11 46.17 47.44 47.16 50.32 50.81 49.79 48.00 45.62 43.17 41.90 39.83 38.65 37.24 36.83 35.20 34.96
34.16 38.85 37.87 36.92 32.65 29.42 35.68 26.86 34.63 38.12 36.41 36.97 36.69 35.83 36.09 36.65 37.01 36.81 35.97 35.66 35.36 35.35 35.92 37.31 38.72 39.04 39.46 39.17 38.27 37.03 37.03 36.71 38.48 39.64 39.83 41.04 43.35 46.88 48.15 47.69 45.86 43.42 41.53 40.37 38.36 38.19 36.89 35.13 33.14
36.55 37.57 35.49 34.48 31.45 30.15 30.46 27.67 32.10 35.64 33.36 34.28 34.60 35.41 35.36 35.80 36.01 35.66 35.61 36.65 36.39 35.46 34.18 34.90 37.31 37.88 38.15 38.17 37.74 36.96 35.78 35.79 35.90 36.74 36.61 37.53 39.02 40.96 43.16 44.13 45.55 43.72 42.10 40.48 39.28 38.86 36.10 35.23 34.56
38.60 35.59 34.52 34.24 31.86 24.58 30.80 30.21 29.95 31.77 34.80 33.69 34.77 35.37 35.95 35.57 35.43 35.70 36.37 36.45 35.20 34.96 33.78 33.47 34.45 35.40 36.57 36.39 35.95 35.62 35.16 35.46 35.25 35.23 35.12 35.72 36.03 36.91 37.20 38.19 39.48 40.74 41.98 39.97 39.12 38.66 37.94 38.32 35.51
36.28 33.32 27.09 24.24 22.51 24.18 32.12 28.94 32.71 34.40 36.17 35.80 34.29 33.74 34.33 34.44 33.97 33.47 33.39 33.56 33.60 32.85 32.89 33.92 32.84 32.69 33.42 33.97 33.92 33.70 33.44 33.56 33.93 33.59 33.87 33.71 34.23 34.20 34.98 34.73 34.67 36.12 38.14 38.94 37.93 35.93 35.79 37.01 37.57
34.33 35.41 29.48 23.54 21.32 23.75 30.58 26.91 32.90 33.52 34.66 34.98 34.81 33.87 34.94 34.90 34.88 34.03 33.22 32.75 32.54 32.49 31.82 31.64 31.49 31.28 31.83 31.98 31.73 31.83 31.79 31.50 31.63 31.92 32.08 32.43 32.42 33.34 34.07 34.06 33.87 34.05 34.77 35.70 36.85 35.22 34.22 34.07 34.57
34.51 32.12 35.82 28.78 21.42 22.90 28.53 31.61 34.12 34.31 32.85 33.29 32.90 33.13 32.27 32.49 32.57 33.24 33.13 32.43 32.34 31.84 31.07 30.76 30.40 30.22 30.73 31.04 30.92 30.33 30.29 29.60 28.94 29.03 29.50 30.10 30.60 32.33 32.32 32.32 32.16 32.58 32.85 33.00 33.35 32.89 32.44 32.44 32.86
36.69 39.13 30.05 29.62 18.14 16.26 24.40 26.53 28.64 31.57 31.08 31.51 30.55 30.19 31.01 32.02 31.44 31.19 32.24 31.86 31.62 31.60 31.13 30.71 30.91 29.80 29.41 29.86 30.34 30.41 30.13 30.17 29.05 28.05 27.45 27.89 28.83 29.30 29.56 30.22 31.06 31.36 31.15 31.31 31.10 30.89 31.23 31.13 31.71
33.62 31.25 33.99 33.45 28.61 19.99 17.17 23.85 32.59 33.80 32.97 31.04 30.68 31.07 30.23 29.78 30.19 31.74 30.35 30.81 30.65 30.20 29.52 29.37 29.48 29.38 28.80 28.86 29.25 29.38 29.09 29.28 28.73 27.60 27.40 27.15 27.11 27.96 28.19 29.01 28.77 29.32 29.84 29.64 29.64 30.08 30.50 30.11 30.43
35.90 33.83 33.34 28.71 24.49 25.43 28.35 26.68 33.48 31.42 31.50 31.51 30.35 31.25 30.67 30.52 29.40 31.23 30.56 30.40 30.87 29.82 29.37 28.74 28.32 28.49 28.80 28.62 27.84 27.76 28.42 28.10 27.05 27.25 26.89 26.22 25.90 26.31 26.83 27.82 27.98 28.13 28.61 28.96 28.93 29.44 30.88 29.82 30.34
MSLP
1014.48 1014.01 1014.57 1014.73 1016.18 1016.58 1015.94 1015.14 1014.18 1013.92 1013.66 1013.44 1013.35 1013.48 1013.80 1013.90 1014.05 1014.84 1014.29 1014.15 1014.41 1014.85 1015.23 1015.46 1015.93 1016.28 1016.55 1016.93 1017.31 1017.60 1017.83 1018.02 1018.23 1018.45 1018.64 1018.80 1018.99 1019.17 1019.26 1019.37 1019.42 1019.54 1019.65 1019.87 1020.10 1020.20 1020.40 1020.59 1020.69
1014.56 1014.12 1014.65 1015.53 1016.49 1016.65 1015.94 1014.59 1013.98 1013.45 1013.17 1013.08 1013.17 1013.25 1013.50 1013.69 1013.59 1014.22 1014.31 1014.15 1014.08 1014.77 1015.12 1015.46 1015.67 1016.05 1016.47 1016.79 1017.13 1017.45 1017.79 1018.09 1018.29 1018.43 1018.55 1018.71 1018.98 1019.19 1019.36 1019.44 1019.57 1019.73 1019.73 1020.11 1020.21 1020.46 1020.52 1020.66 1020.78
1014.71 1014.61 1015.74 1016.07 1016.52 1015.92 1015.12 1014.40 1013.76 1013.34 1013.07 1013.04 1013.21 1013.04 1013.12 1013.36 1013.54 1013.91 1014.01 1014.01 1014.01 1014.71 1015.08 1015.39 1015.90 1016.15 1016.34 1016.63 1017.04 1017.38 1017.64 1017.96 1018.21 1018.41 1018.65 1018.88 1019.06 1019.20 1019.40 1019.62 1019.80 1019.93 1020.04 1020.35 1020.38 1020.58 1020.67 1020.91 1020.93
1014.88 1015.19 1016.02 1016.12 1015.95 1014.81 1014.39 1013.97 1013.39 1013.26 1013.25 1013.10 1013.24 1013.50 1013.18 1013.01 1013.24 1013.55 1013.75 1013.95 1014.23 1014.74 1014.90 1015.32 1015.77 1016.14 1016.50 1016.73 1016.87 1017.14 1017.50 1017.82 1018.07 1018.31 1018.55 1018.80 1019.11 1019.46 1019.74 1019.88 1019.86 1020.00 1020.25 1020.45 1020.55 1020.74 1020.97 1020.99 1021.15
1015.26 1016.05 1016.55 1016.40 1015.42 1014.29 1013.90 1013.41 1013.23 1013.23 1013.21 1013.26 1013.13 1013.39 1013.49 1013.49 1013.68 1013.58 1013.76 1013.99 1014.25 1014.61 1014.73 1015.06 1015.50 1015.90 1016.21 1016.58 1016.94 1017.25 1017.52 1017.74 1017.90 1018.12 1018.39 1018.69 1019.00 1019.16 1019.76 1020.02 1020.11 1020.29 1020.39 1020.61 1020.74 1020.96 1021.16 1021.14 1021.23
1016.01 1016.34 1016.88 1016.49 1015.25 1014.15 1013.76 1013.20 1013.23 1013.35 1013.18 1013.29 1013.38 1013.52 1013.74 1013.78 1014.09 1014.08 1013.90 1014.04 1014.00 1014.44 1014.63 1014.87 1015.12 1015.42 1015.83 1016.20 1016.54 1016.93 1017.35 1017.71 1017.99 1018.13 1018.25 1018.51 1018.83 1019.05 1019.65 1020.07 1020.11 1020.19 1020.46 1020.79 1020.92 1021.11 1021.32 1021.37 1021.48
1016.21 1016.88 1016.87 1016.01 1015.00 1014.14 1013.63 1013.14 1013.29 1013.44 1013.49 1013.42 1013.36 1013.73 1013.89 1013.99 1014.02 1014.00 1014.02 1014.10 1014.12 1014.18 1014.51 1014.82 1015.14 1015.55 1015.88 1016.21 1016.52 1016.79 1017.07 1017.40 1017.71 1017.97 1018.19 1018.45 1018.75 1018.95 1019.39 1019.83 1020.07 1020.25 1020.56 1020.77 1021.03 1021.24 1021.38 1021.56 1021.72
1016.05 1016.87 1016.75 1015.81 1015.02 1014.21 1013.56 1013.27 1013.21 1013.44 1013.42 1013.42 1013.44 1013.78 1013.91 1013.45 1013.68 1013.72 1013.78 1013.93 1014.25 1014.45 1014.58 1014.86 1015.24 1015.51 1015.81 1016.01 1016.25 1016.56 1016.82 1017.10 1017.40 1017.72 1017.98 1018.37 1018.81 1019.05 1019.41 1019.89 1020.20 1020.37 1020.64 1020.82 1021.11 1021.34 1021.46 1021.58 1021.74
1015.91 1016.96 1016.86 1015.86 1015.07 1014.54 1013.95 1013.87 1013.69 1013.52 1013.69 1013.75 1013.43 1013.43 1013.30 1013.59 1013.95 1014.15 1014.24 1014.31 1014.27 1014.49 1014.71 1014.74 1014.97 1015.26 1015.50 1015.87 1016.09 1016.39 1016.56 1016.80 1017.09 1017.42 1017.72 1018.13 1018.65 1018.99 1019.37 1019.83 1020.18 1020.45 1020.72 1020.94 1021.20 1021.37 1021.51 1021.75 1021.95
1016.48 1017.13 1016.37 1015.61 1015.13 1014.83 1014.46 1014.37 1014.46 1014.23 1014.31 1013.78 1013.69 1013.33 1013.23 1013.70 1014.05 1014.20 1014.35 1014.43 1014.50 1014.32 1014.14 1014.31 1014.50 1014.82 1015.12 1015.43 1015.79 1016.22 1016.61 1016.79 1016.97 1017.31 1017.75 1018.09 1018.50 1018.85 1019.20 1019.61 1019.98 1020.28 1020.56 1020.83 1021.12 1021.35 1021.62 1021.97 1022.21
1016.19 1016.43 1015.84 1015.12 1014.97 1014.82 1014.70 1014.66 1014.59 1014.81 1014.89 1014.07 1013.92 1013.59 1013.36 1013.62 1013.85 1013.96 1013.93 1013.83 1013.61 1013.43 1013.65 1013.73 1013.98 1014.17 1014.64 1014.89 1015.32 1015.80 1016.14 1016.50 1016.84 1017.07 1017.54 1017.92 1018.45 1018.83 1019.14 1019.45 1019.74 1020.13 1020.39 1020.85 1021.17 1021.53 1021.97 1022.14 1022.23
1016.11 1015.85 1015.74 1015.45 1015.13 1015.11 1014.99 1014.87 1014.95 1014.98 1014.45 1013.99 1013.67 1013.53 1013.63 1013.72 1013.72 1013.49 1013.37 1013.08 1013.07 1013.01 1012.86 1012.99 1013.29 1013.75 1014.07 1014.37 1014.92 1015.32 1015.67 1016.15 1016.51 1016.58 1017.19 1017.67 1018.12 1018.58 1019.11 1019.57 1019.79 1020.11 1020.37 1020.85 1021.32 1021.76 1022.04 1022.21 1022.31
1015.84 1015.85 1015.66 1015.38 1015.18 1015.13 1015.13 1015.18 1015.34 1014.71 1013.88 1013.89 1013.62 1013.63 1013.93 1014.03 1014.13 1014.48 1014.28 1014.05 1013.80 1013.87 1013.35 1012.61 1012.71 1013.07 1013.24 1013.98 1014.44 1015.06 1015.38 1015.75 1016.10 1016.53 1016.77 1017.18 1017.70 1018.12 1018.70 1019.44 1019.76 1020.13 1020.48 1020.80 1021.33 1021.68 1022.02 1022.26 1022.36
1016.17 1016.10 1015.94 1015.53 1015.01 1015.12 1015.14 1015.06 1015.27 1014.18 1013.83 1013.97 1014.09 1014.16 1014.59 1015.36 1015.70 1015.52 1015.47 1015.75 1015.29 1015.04 1014.34 1013.35 1012.89 1012.69 1012.90 1013.47 1013.98 1014.54 1015.08 1015.44 1015.91 1016.32 1016.61 1016.97 1017.37 1017.86 1018.27 1019.02 1019.39 1019.89 1020.25 1020.65 1021.06 1021.56 1022.01 1022.23 1022.34
1016.18 1016.36 1016.10 1014.83 1014.73 1014.77 1014.71 1015.47 1015.12 1014.07 1013.90 1013.69 1014.27 1014.52 1016.01 1016.60 1016.81 1017.05 1017.24 1016.93 1016.57 1015.97 1015.38 1014.47 1013.56 1012.99 1012.95 1013.29 1013.61 1014.06 1014.64 1015.21 1015.79 1016.07 1016.33 1016.68 1017.09 1017.54 1018.11 1018.88 1019.29 1019.45 1019.80 1020.35 1021.03 1021.47 1021.77 1022.14 1022.32
1016.49 1016.72 1016.47 1014.86 1014.69 1014.78 1014.87 1015.17 1014.67 1013.87 1014.34 1013.89 1014.65 1015.51 1016.64 1017.57 1017.94 1018.13 1017.98 1017.67 1017.33 1016.58 1015.82 1015.21 1014.54 1013.54 1013.32 1013.37 1013.62 1013.87 1014.26 1014.80 1015.31 1015.81 1016.10 1016.45 1016.80 1017.19 1017.97 1018.65 1019.10 1019.40 1019.94 1020.41 1020.88 1021.26 1021.76 1022.00 1022.16
1017.08 1016.88 1016.46 1015.57 1014.77 1014.99 1015.29 1015.46 1014.65 1013.79 1014.34 1014.73 1015.54 1016.83 1017.79 1018.46 1018.63 1018.74 1018.58 1018.36 1017.91 1017.56 1016.78 1015.83 1015.19 1014.91 1014.33 1014.11 1014.19 1014.31 1014.46 1014.80 1015.27 1015.63 1015.95 1016.36 1016.81 1017.15 1017.65 1018.36 1018.97 1019.45 1020.12 1020.60 1021.02 1021.65 1021.84 1022.23 1022.36
1017.33 1017.22 1016.55 1016.01 1015.35 1015.16 1015.42 1015.30 1015.13 1014.47 1014.16 1015.34 1016.73 1017.90 1018.70 1019.13 1019.55 1019.53 1019.15 1019.08 1018.83 1018.26 1017.69 1016.96 1016.35 1015.72 1015.27 1015.21 1015.11 1015.36 1015.44 1015.38 1015.34 1015.59 1015.85 1016.25 1016.78 1017.31 1017.71 1018.17 1018.74 1019.31 1020.13 1020.77 1021.16 1021.54 1022.08 1022.25 1022.53
1017.06 1017.02 1016.76 1015.97 1015.20 1015.25 1015.14 1015.35 1015.16 1014.70 1014.58 1016.00 1017.41 1018.32 1019.28 1019.78 1020.35 1020.15 1020.11 1020.01 1019.58 1019.17 1018.65 1018.16 1017.51 1017.12 1016.57 1016.23 1016.43 1016.50 1016.81 1016.77 1016.56 1016.32 1016.26 1016.45 1016.76 1017.12 1017.74 1018.21 1018.56 1019.07 1019.54 1020.04 1020.80 1021.48 1022.10 1022.56 1022.77
1017.19 1017.06 1016.69 1016.08 1015.30 1015.39 1015.29 1015.60 1015.19 1014.56 1014.95 1015.82 1017.21 1018.43 1019.33 1020.06 1020.45 1020.81 1021.02 1020.75 1020.29 1019.97 1019.63 1019.23 1018.73 1018.27 1017.94 1017.81 1017.58 1017.57 1017.61 1017.57 1017.61 1017.42 1017.40 1017.42 1017.36 1017.42 1017.54 1017.99 1018.61 1019.13 1019.75 1020.22 1020.42 1020.67 1021.59 1022.08 1022.35
1016.59 1016.66 1016.68 1016.63 1015.98 1015.93 1016.09 1016.20 1015.57 1015.29 1016.25 1016.99 1018.33 1018.80 1019.51 1019.96 1020.59 1021.28 1021.36 1021.37 1021.20 1020.88 1020.52 1020.21 1019.86 1019.38 1018.91 1018.46 1018.28 1018.42 1018.18 1018.28 1018.27 1018.35 1018.29 1018.23 1018.23 1018.24 1018.12 1018.22 1018.43 1018.96 1019.32 1019.73 1020.11 1020.48 1020.78 1021.53 1021.78
1016.85 1016.20 1016.47 1016.87 1017.04 1017.17 1016.91 1016.79 1016.05 1015.68 1016.99 1018.18 1018.93 1019.46 1020.16 1020.68 1021.28 1021.76 1021.99 1021.98 1021.88 1021.77 1021.43 1020.93 1020.49 1020.03 1019.68 1019.48 1019.40 1019.48 1019.98 1020.38 1020.42 1019.92 1019.59 1019.21 1018.90 1018.80 1018.96 1018.90 1018.88 1019.02 1019.32 1019.61 1019.74 1020.04 1020.53 1021.06 1021.65
1016.17 1016.16 1016.58 1017.04 1017.78 1018.06 1018.04 1018.32 1016.37 1016.34 1017.75 1018.84 1019.70 1020.42 1020.84 1021.15 1021.54 1021.93 1022.29 1022.51 1022.58 1022.50 1022.29 1021.97 1021.23 1020.83 1020.59 1020.35 1020.31 1020.56 1020.68 1021.16 1021.21 1021.03 1020.69 1020.28 1019.83 1019.75 1019.79 1019.55 1019.13 1019.10 1019.27 1019.57 1019.85 1020.05 1020.27 1020.50 1020.93
1016.18 1016.80 1017.39 1017.97 1018.94 1019.29 1018.14 1018.20 1016.78 1016.68 1016.86 1018.77 1019.89 1020.65 1021.30 1021.79 1022.22 1022.53 1022.67 1022.81 1023.08 1023.30 1023.04 1022.56 1022.16 1021.94 1021.64 1021.32 1021.15 1021.24 1021.47 1021.76 1021.85 1021.93 1021.81 1021.74 1021.29 1020.89 1020.67 1020.63 1020.21 1019.59 1019.29 1019.49 1019.61 1019.72 1020.01 1020.21 1020.29
1016.54 1017.46 1018.40 1019.58 1020.12 1019.08 1018.16 1018.23 1016.59 1016.79 1016.78 1018.29 1019.85 1020.97 1021.73 1022.42 1022.54 1022.98 1023.17 1023.47 1023.85 1024.00 1023.94 1023.52 1022.96 1022.72 1022.39 1022.61 1022.49 1022.30 1022.28 1022.45 1022.73 1022.92 1023.12 1022.97 1022.51 1022.13 1021.90 1021.48 1020.91 1020.11 1019.86 1019.64 1019.56 1019.64 1019.76 1019.81 1019.88
1016.68 1017.34 1018.21 1019.22 1020.38 1019.56 1018.88 1018.27 1017.03 1018.00 1017.93 1018.77 1020.38 1021.42 1021.95 1022.56 1023.09 1023.35 1023.58 1023.55 1023.97 1024.08 1024.27 1024.42 1024.06 1023.52 1023.92 1023.51 1023.57 1023.19 1023.24 1023.29 1023.36 1023.38 1023.54 1023.61 1023.44 1023.08 1022.57 1022.09 1021.06 1020.33 1020.06 1019.89 1019.76 1019.74 1019.57 1019.49 1019.46
1016.62 1017.17 1017.79 1019.02 1020.39 1020.35 1018.97 1018.43 1018.41 1018.80 1019.18 1019.76 1020.78 1021.94 1022.60 1022.84 1022.94 1023.48 1023.73 1024.14 1024.42 1024.84 1024.90 1024.83 1024.61 1024.80 1024.64 1024.47 1024.10 1023.85 1023.75 1023.69 1023.94 1024.22 1023.98 1024.11 1023.99 1023.22 1022.93 1022.25 1021.30 1020.79 1020.41 1020.25 1020.08 1019.90 1019.64 1019.40 1019.23
1016.61 1017.22 1018.34 1019.37 1020.63 1020.39 1019.20 1018.79 1018.66 1019.04 1019.56 1020.67 1021.43 1022.08 1022.91 1023.01 1023.38 1023.66 1023.87 1024.11 1024.50 1024.70 1024.96 1024.93 1024.95 1025.13 1024.90 1024.53 1024.44 1024.73 1024.64 1024.36 1024.36 1024.56 1024.46 1024.59 1024.30 1023.74 1023.10 1022.46 1021.86 1021.13 1020.76 1020.56 1020.32 1019.98 1019.61 1019.36 1018.98
1017.19 1017.44 1018.16 1019.02 1019.90 1019.84 1019.73 1018.87 1018.15 1018.56 1019.12 1020.26 1021.28 1022.09 1022.65 1023.05 1023.05 1023.31 1023.48 1024.00 1024.35 1024.49 1024.58 1024.75 1024.92 1025.39 1025.35 1024.99 1024.58 1024.66 1024.83 1024.93 1024.59 1024.41 1024.58 1024.67 1024.03 1023.50 1023.08 1022.75 1022.19 1021.81 1021.18 1020.75 1020.44 1020.08 1019.67 1019.21 1018.72
1017.62 1017.90 1018.58 1019.29 1019.76 1019.76 1019.68 1019.11 1018.63 1019.15 1019.22 1020.07 1021.32 1021.63 1021.72 1021.88 1022.32 1022.82 1023.43 1023.96 1024.11 1024.28 1024.47 1024.79 1024.71 1025.34 1025.21 1024.93 1024.72 1024.91 1025.03 1025.00 1024.97 1024.81 1024.55 1024.17 1023.87 1023.62 1023.22 1022.85 1022.27 1021.95 1021.29 1020.86 1020.73 1020.15 1019.61 1019.20 1018.49
Wind_Speed
7 8 1 5 6 6 3 3 4 5 3 0 0 2 3 3 3 4 3 7 9 11 13 16 17 16 16 15 14 13 12 13 13 12 10 10 9 7 7 6 5 9 11 9 8 9 9 9 8
5 5 5 2 6 4 5 3 4 4 4 1 0 0 1 2 2 4 3 5 7 9 11 12 16 17 16 15 15 15 14 12 12 11 12 12 12 10 8 7 9 10 13 8 8 8 9 8 7
4 0 4 4 3 3 3 1 2 3 3 2 2 1 1 3 3 7 4 7 7 8 9 10 12 15 16 16 15 15 14 13 13 13 12 12 12 13 11 10 10 9 11 8 9 8 8 7 6
2 5 5 5 2 1 3 3 2 2 2 2 2 4 3 2 3 7 6 7 6 9 9 12 14 15 15 14 15 16 15 14 14 15 13 13 13 13 10 5 10 11 10 7 7 8 7 7 6
4 3 4 3 4 2 3 3 2 2 1 4 4 3 5 4 5 8 7 6 7 8 8 12 17 15 15 15 14 14 15 14 14 13 14 15 14 10 7 4 6 8 8 7 8 7 6 7 6
4 4 4 1 4 1 2 3 2 4 3 1 2 2 2 2 3 4 7 7 7 8 7 10 16 16 15 16 16 15 15 14 12 12 15 15 15 13 12 8 8 8 6 7 8 7 7 6 6
3 4 3 3 4 3 2 1 3 1 5 2 0 2 2 2 5 6 7 6 6 7 8 7 10 10 11 12 13 13 14 13 12 11 12 14 11 14 13 10 8 9 9 9 8 8 7 6 5
4 4 2 3 3 2 3 1 3 1 5 1 1 2 3 6 9 7 6 5 5 5 6 7 6 7 7 7 12 13 13 13 12 10 11 10 8 10 11 9 7 10 9 9 9 8 7 6 5
4 5 2 3 5 2 4 4 4 4 3 2 5 5 4 0 4 3 2 2 3 4 7 7 8 7 8 7 7 9 10 12 12 11 12 10 5 7 9 9 8 10 9 9 9 9 8 7 4
5 4 5 1 1 3 5 2 3 4 8 8 5 4 4 6 5 7 6 7 6 7 8 9 8 9 8 8 7 6 7 5 5 6 7 6 6 6 7 8 10 9 9 11 11 9 8 6 1
4 5 2 5 4 1 2 7 4 5 3 10 9 6 9 3 6 8 8 10 11 8 4 9 9 8 10 8 6 5 6 5 5 9 8 6 6 4 4 4 4 4 8 4 6 6 4 5 3
3 7 4 5 5 4 3 3 9 5 11 10 10 9 4 8 9 9 9 9 6 8 11 9 10 9 9 7 5 6 6 6 4 7 8 6 5 6 4 3 4 4 4 6 5 3 3 2 4
4 3 4 6 9 7 4 6 5 12 14 11 12 9 8 8 7 11 11 12 9 9 8 8 9 10 10 8 5 5 6 6 6 4 7 8 6 6 6 5 4 4 4 5 5 5 4 4 3
2 3 6 7 12 5 6 4 2 11 7 9 7 8 9 15 11 11 16 15 16 13 15 9 7 10 7 8 7 5 4 5 5 4 5 7 6 5 7 6 6 5 5 5 5 5 5 4 4
2 4 8 10 5 7 7 4 7 12 8 8 3 8 13 13 13 14 11 11 11 11 13 15 10 7 8 8 7 5 5 5 4 4 7 7 6 7 7 6 6 6 5 7 5 4 4 4 3
3 1 3 6 4 3 3 7 8 11 7 17 7 8 10 13 13 12 12 12 13 12 13 13 14 8 3 5 5 4 5 4 4 4 4 6 7 9 7 5 4 5 5 5 5 5 4 4 5
3 4 6 8 2 3 3 6 11 9 8 9 8 11 10 11 14 14 15 15 14 13 13 13 14 14 8 5 4 2 3 4 4 4 3 5 5 6 7 4 4 5 4 4 4 1 3 3 3
6 4 4 4 4 3 4 10 8 12 13 4 10 9 11 13 15 14 16 15 14 14 13 13 12 15 10 6 5 5 5 3 2 3 3 5 5 6 4 4 6 5 4 4 3 4 1 2 4
2 3 4 6 10 2 8 6 9 11 13 8 8 10 11 13 10 13 13 11 12 14 15 15 15 14 10 7 5 5 4 4 5 4 4 5 4 6 6 4 5 5 7 7 6 4 5 1 3
6 5 6 6 5 1 7 9 9 13 6 9 13 9 10 9 11 11 11 11 13 13 13 14 14 14 11 8 4 4 2 3 3 5 7 6 2 1 4 6 5 5 4 5 6 6 4 4 6
4 6 5 8 5 3 3 7 8 4 12 13 9 11 11 11 11 8 10 9 9 12 10 11 12 12 12 10 7 6 5 4 6 6 6 7 7 5 0 3 4 5 5 7 7 6 7 6 6
4 5 5 5 2 4 3 8 6 5 7 5 7 8 8 10 9 7 7 8 8 8 8 8 11 13 12 12 9 10 6 5 4 4 4 7 8 6 5 4 2 3 3 4 5 5 4 4 6
9 3 2 2 2 3 3 0 9 9 4 6 6 7 7 8 8 8 7 7 7 7 7 7 9 13 12 14 12 9 10 5 4 6 9 9 9 10 10 6 4 2 3 4 5 4 6 4 4
5 2 3 4 3 2 8 7 6 5 8 7 6 8 9 7 7 7 7 7 7 7 7 7 9 11 11 12 13 13 13 11 11 10 9 8 6 6 9 10 7 6 4 4 5 6 6 8 6
3 5 2 2 0 8 5 2 9 5 5 9 12 9 8 6 7 7 7 7 7 7 8 7 9 12 11 12 12 11 10 9 10 8 7 8 7 6 9 7 7 5 6 6 4 5 5 7 8
6 7 5 5 3 5 5 6 5 4 11 14 9 8 8 7 6 6 6 6 6 8 8 8 8 10 8 8 9 9 9 7 6 7 6 6 6 6 7 8 7 7 7 7 6 3 4 5 6
4 5 2 3 1 3 4 5 2 5 7 9 9 7 6 6 6 6 6 6 6 5 5 6 7 6 6 6 6 7 7 8 7 8 5 4 5 7 9 9 9 8 7 7 7 4 6 5 6
2 5 3 2 2 4 5 5 6 5 7 7 8 8 6 5 6 6 5 6 4 4 4 5 6 6 5 6 6 5 6 6 5 4 6 6 5 6 7 8 9 9 8 7 7 5 6 6 5
2 2 3 4 5 5 2 7 3 6 8 10 7 7 8 7 7 6 6 6 6 5 5 5 5 5 5 5 5 6 5 5 5 4 4 5 6 6 7 7 7 8 8 7 7 7 7 7 7
5 5 5 4 6 3 4 9 4 8 8 10 9 9 10 9 9 7 6 5 5 6 5 4 4 3 2 2 4 4 4 6 6 6 7 7 7 6 6 7 7 7 7 7 7 8 9 8 8
Wind_Direction
313 297 122 34 54 63 330 54 130 35 32 152 309 92 211 204 211 207 246 190 112 151 166 162 168 170 167 164 159 157 160 164 162 160 157 151 149 144 158 154 142 130 122 110 101 95 88 81 71
317 316 41 71 81 68 298 146 82 172 183 80 293 359 12 41 116 126 111 173 141 156 161 169 167 170 170 167 165 164 165 171 171 170 170 162 149 134 120 129 133 132 110 110 111 106 99 92 74
305 213 74 95 117 134 190 75 99 21 108 103 13 352 214 159 124 151 203 160 115 146 156 160 167 172 172 170 169 169 170 178 180 175 166 157 148 133 120 114 127 119 107 124 119 116 108 95 79
10 10 15 84 248 192 100 23 58 20 44 63 130 320 331 313 125 161 155 147 133 151 156 157 165 173 177 176 174 172 174 183 186 179 179 175 165 144 132 134 143 138 134 131 128 125 122 110 96
33 70 49 8 287 154 82 98 49 298 310 190 162 296 300 26 122 136 143 151 153 160 164 164 170 177 178 179 181 181 181 188 188 191 183 185 174 164 159 193 185 150 131 144 142 132 126 113 105
12 91 52 355 301 151 82 103 22 351 350 325 44 24 289 146 125 169 149 171 173 168 155 170 177 178 181 181 185 185 188 193 199 205 190 185 179 145 166 177 207 192 162 170 149 141 134 119 104
102 78 220 292 284 359 153 226 87 24 338 305 248 320 310 204 176 166 161 186 192 179 152 166 177 186 185 187 188 189 190 194 197 208 204 183 182 159 161 169 201 193 185 174 154 147 140 128 106
94 92 296 277 250 308 192 145 151 41 270 179 36 264 256 228 183 156 156 160 200 171 175 164 172 183 188 195 193 193 192 190 191 203 181 169 165 153 147 157 210 193 184 177 163 158 147 131 108
47 59 261 275 14 295 329 30 350 333 314 339 216 206 267 17 134 146 191 229 190 194 196 183 179 186 190 196 197 199 199 194 192 185 174 161 159 152 149 156 185 185 187 177 171 163 148 126 120
96 117 234 135 354 322 319 53 305 352 321 286 295 283 313 150 180 211 218 230 222 217 205 195 182 185 181 197 197 195 209 207 188 174 173 168 162 158 156 162 176 180 173 174 175 168 140 122 124
183 191 217 301 348 328 294 319 319 6 276 261 274 262 301 188 227 231 243 225 215 215 205 194 194 182 181 192 178 188 198 189 190 178 177 163 163 166 161 162 170 169 159 161 162 154 153 176 186
196 233 245 279 315 314 280 298 312 233 249 256 269 264 276 289 297 287 253 242 221 211 210 201 195 182 188 184 176 180 186 185 187 176 172 171 173 170 160 171 168 162 158 152 146 145 171 227 178
225 258 292 304 291 277 304 270 247 282 273 275 288 314 312 300 337 14 11 13 6 348 320 217 184 193 192 180 170 169 186 187 189 182 175 179 183 173 158 167 161 161 155 155 161 166 180 185 160
346 320 281 270 265 251 227 266 70 279 300 312 9 346 11 60 39 39 24 15 11 357 352 330 223 197 183 183 173 171 166 170 173 183 190 182 180 174 169 170 172 167 172 166 165 171 177 180 165
349 343 315 269 253 228 149 328 236 251 302 285 9 317 68 58 43 42 29 26 8 360 347 350 344 226 179 182 169 156 167 161 171 181 191 187 177 170 173 173 178 180 174 161 156 166 156 158 168
290 122 318 282 121 271 89 257 249 276 319 294 355 23 84 58 50 38 33 25 10 7 8 355 350 349 213 170 169 162 161 162 163 175 182 183 171 171 163 170 175 174 163 160 164 164 168 179 175
291 219 202 308 232 136 150 251 270 285 289 302 347 102 76 62 49 37 29 19 15 6 5 13 13 8 18 63 74 92 157 149 157 159 168 157 149 147 152 163 175 155 152 157 164 139 143 175 181
222 220 265 233 252 164 213 250 272 291 293 23 95 78 73 62 47 37 31 18 9 9 14 18 21 19 19 21 48 37 46 43 95 128 146 156 154 146 151 160 165 151 146 153 158 153 158 158 170
270 265 273 271 275 296 264 229 252 259 286 101 99 98 86 71 62 48 35 22 23 22 18 17 24 17 24 18 10 21 32 353 25 22 55 126 162 166 161 175 168 162 173 175 167 136 168 206 160
231 235 259 272 266 200 281 285 263 256 278 148 137 116 104 90 64 48 35 28 25 27 25 23 24 27 28 26 6 44 36 24 26 18 31 28 66 195 165 167 182 169 145 168 174 162 155 185 188
220 218 235 227 313 288 343 306 264 13 83 91 85 100 94 97 87 62 52 36 26 28 16 28 28 33 32 32 37 25 19 19 16 16 17 12 16 5 217 205 175 178 178 190 193 187 172 193 210
267 213 234 242 116 232 78 285 256 200 120 91 103 98 98 93 80 76 57 45 37 29 14 25 36 40 39 34 45 55 56 35 350 4 5 3 359 0 25 340 316 221 194 196 200 201 193 142 199
223 132 164 228 237 34 280 261 266 111 168 153 127 107 98 100 102 93 74 56 38 30 25 8 40 46 41 45 48 47 46 40 9 13 15 12 13 14 350 339 346 283 211 223 214 209 210 189 178
142 79 10 61 100 318 237 166 276 187 186 148 141 124 116 108 95 83 74 59 45 27 30 26 35 40 39 45 47 53 51 39 32 18 17 3 359 5 12 358 345 332 307 243 229 219 220 225 225
92 82 294 3 99 221 184 167 237 3 80 142 133 118 113 105 97 90 77 61 45 33 23 37 38 42 34 39 41 44 49 48 47 34 20 8 1 3 354 346 343 351 330 308 263 244 233 226 229
167 183 172 230 226 256 347 267 274 77 86 103 106 125 119 109 106 102 92 83 65 47 38 29 32 42 30 39 38 40 41 47 47 36 22 13 6 350 343 344 347 354 350 338 315 284 260 238 237
199 197 165 115 60 54 226 285 96 84 100 123 126 106 121 129 113 104 87 78 76 75 74 76 57 45 41 43 41 40 42 44 33 19 19 358 343 353 348 347 357 352 348 343 333 312 299 277 256
178 155 90 25 187 238 275 254 235 189 176 152 147 151 158 124 111 117 120 127 125 113 103 85 71 58 42 42 41 35 31 39 37 23 11 354 328 339 344 346 348 349 347 340 338 321 301 295 278
150 229 217 174 166 197 213 253 147 145 173 170 157 160 152 152 161 165 155 153 154 133 112 109 86 60 40 35 35 29 18 8 9 7 344 333 327 334 339 330 333 332 335 334 332 314 300 295 287
192 227 197 213 255 249 242 251 107 121 122 130 159 175 184 180 179 173 171 151 143 134 126 96 120 131 122 74 54 27 7 358 344 339 331 335 329 323 315 311 312 303 310 317 313 309 305 292 289